EW3925 Weather Reports


Display with metric or nautical units.
time (UTC)temp
F
wind
direction
speed
MPH
gust
MPH
rain 1hr
in
rain 24hr
in
rain mn
in
humidity
%
barometer
mb
20260905230032 58 146 0.0 0.0 0.00 0.00 0.00 71 1016.7
20260905224532 59 146 0.0 0.0 0.00 0.00 0.00 71 1016.6
20260905223028 59 146 0.0 0.0 0.00 0.00 0.00 70 1016.6
20260905221527 59 146 0.0 0.0 0.00 0.00 0.00 70 1016.5
20260905220056 59 146 0.0 0.0 0.00 0.00 0.00 71 1016.4
20260905214552 60 146 0.0 0.0 0.00 0.00 0.00 71 1016.3
20260905213048 61 146 0.0 0.0 0.00 0.00 0.00 71 1016.3
20260905211552 61 146 0.0 0.0 0.00 0.00 0.00 70 1016.2
20260905210047 62 146 0.0 0.0 0.00 0.00 0.00 69 1016.1
20260905204545 62 146 0.0 0.0 0.00 0.00 0.00 68 1016.1
20260905203040 63 146 0.0 10.0 0.00 0.00 0.00 67 1015.9
20260905201535 64 146 0.0 0.0 0.00 0.00 0.00 67 1015.8
20260905200038 64 146 1.0 19.0 0.00 0.00 0.00 69 1015.7
20260905194530 64 146 0.0 7.0 0.00 0.00 0.00 72 1015.5
20260905193025 65 146 0.0 0.0 0.00 0.00 0.00 69 1015.3
20260905191527 67 146 0.0 13.0 0.00 0.00 0.00 67 1015.3
20260905190022 67 146 0.0 7.0 0.00 0.00 0.00 64 1015.1
20260905184541 66 146 0.0 8.0 0.00 0.00 0.00 71 1014.9
20260905183035 66 146 0.0 4.0 0.00 0.00 0.00 75 1014.7
20260905181518 67 147 1.0 5.0 0.00 0.00 0.00 74 1014.5
20260905180016 67 147 0.0 3.0 0.00 0.00 0.00 73 1014.4
20260905174511 68 147 0.0 0.0 0.00 0.00 0.00 72 1014.0
20260905173011 68 147 0.0 4.0 0.00 0.00 0.00 72 1013.9
20260905171543 68 147 1.0 4.0 0.00 0.00 0.00 71 1013.5
20260905170039 69 148 1.0 5.0 0.00 0.00 0.00 71 1013.5
20260905164537 70 149 1.0 3.0 0.00 0.00 0.00 69 1013.3
20260905163036 71 150 1.0 5.0 0.00 0.00 0.00 68 1013.1
20260905161535 72 150 1.0 3.0 0.00 0.00 0.00 64 1013.0
20260905160035 72 150 3.0 7.0 0.00 0.00 0.00 63 1012.8
20260905154549 72 244 1.0 5.0 0.00 0.00 0.00 64 1013.0
20260905153033 73 261 0.0 2.0 0.00 0.00 0.00 62 1013.0
20260905151532 73 263 3.0 6.0 0.00 0.00 0.00 61 1013.0
20260905150032 72 303 0.0 6.0 0.00 0.00 0.00 62 1013.1
20260905144534 72 274 0.0 3.0 0.00 0.00 0.00 64 1013.0
20260905143029 72 277 3.0 9.0 0.00 0.00 0.00 65 1013.0
20260905141529 73 308 2.0 9.0 0.00 0.00 0.00 63 1013.1
20260905140026 73 274 6.0 11.0 0.00 0.00 0.00 64 1013.0
20260905134520 73 268 4.0 8.0 0.00 0.00 0.00 65 1013.0
20260905133035 73 279 2.0 10.0 0.00 0.00 0.00 65 1013.0
20260905131518 72 270 2.0 9.0 0.00 0.00 0.00 67 1013.1
20260905130018 72 247 3.0 11.0 0.00 0.00 0.00 66 1013.2
20260905124512 71 252 3.0 9.0 0.00 0.00 0.00 67 1013.3
20260905123011 71 251 5.0 13.0 0.00 0.00 0.00 68 1013.4
20260905121509 70 298 3.0 7.0 0.00 0.00 0.00 70 1013.3
20260905120009 70 247 3.0 10.0 0.00 0.00 0.00 69 1013.4
20260905114505 70 258 0.0 8.0 0.00 0.00 0.00 69 1013.7
20260905113002 69 256 1.0 7.0 0.00 0.00 0.00 70 1013.6
20260905111502 68 258 3.0 6.0 0.00 0.00 0.00 70 1013.7
20260905110059 67 259 1.0 6.0 0.00 0.00 0.00 70 1014.1
20260905104603 67 259 3.0 8.0 0.00 0.00 0.00 72 1013.6
20260905103055 67 259 2.0 8.0 0.00 0.00 0.00 75 1013.1
20260905101559 66 215 2.0 7.0 0.00 0.00 0.00 76 1013.0
20260905100051 67 153 2.0 11.0 0.00 0.00 0.00 75 1013.5
20260905094515 68 150 0.0 3.0 0.00 0.00 0.00 73 1013.7
20260905093015 68 150 1.0 8.0 0.00 0.00 0.00 70 1013.8
20260905091506 69 148 0.0 7.0 0.00 0.00 0.00 64 1013.7
20260905090007 70 144 1.0 7.0 0.00 0.00 0.00 60 1013.4
20260905084502 70 130 1.0 3.0 0.00 0.00 0.00 61 1013.0
20260905083005 69 130 0.0 15.0 0.00 0.00 0.00 65 1012.9
20260905081558 69 121 0.0 6.0 0.00 0.00 0.00 66 1013.1
20260905080113 69 121 0.0 21.0 0.00 0.00 0.00 64 1012.7
20260905074558 70 128 2.0 7.0 0.00 0.00 0.00 63 1012.5
20260905073101 70 136 6.0 12.0 0.00 0.00 0.00 58 1011.8
20260905071557 70 114 6.0 12.0 0.00 0.00 0.00 59 1011.9
20260905070055 71 92 7.0 15.0 0.00 0.00 0.00 58 1011.7
20260905064557 71 121 5.0 15.0 0.00 0.00 0.00 60 1011.3
20260905063055 70 87 6.0 13.0 0.00 0.00 0.00 62 1011.5
20260905061558 70 123 3.0 14.0 0.00 0.00 0.00 63 1011.3
20260905060051 69 125 7.0 15.0 0.00 0.00 0.00 64 1011.3
20260905054551 69 134 5.0 9.0 0.00 0.00 0.00 66 1011.0
20260905053050 68 128 5.0 11.0 0.00 0.00 0.00 67 1010.8
20260905051551 67 136 2.0 5.0 0.00 0.00 0.00 69 1010.8
20260905050048 67 136 4.0 9.0 0.00 0.00 0.00 69 1010.9
20260905044547 67 133 4.0 9.0 0.00 0.00 0.00 69 1011.0
20260905043055 67 117 3.0 12.0 0.00 0.00 0.00 69 1010.9
20260905041545 64 115 4.0 10.0 0.00 0.00 0.00 73 1010.5
20260905040016 63 132 2.0 9.0 0.00 0.00 0.00 74 1010.4
20260905034515 64 132 6.0 12.0 0.00 0.00 0.00 74 1010.7
20260905033018 64 113 4.0 10.0 0.00 0.00 0.00 72 1010.3
20260905031509 66 355 0.0 2.0 0.00 0.00 0.00 69 1009.4
20260905030010 67 325 0.0 6.0 0.00 0.00 0.00 67 1009.0
20260905024508 67 326 2.0 8.0 0.00 0.00 0.00 67 1008.9
20260905023007 66 298 4.0 10.0 0.00 0.00 0.00 70 1008.8
20260905021505 65 321 3.0 6.0 0.00 0.00 0.00 73 1009.0
20260905020005 64 342 3.0 5.0 0.00 0.00 0.00 73 1009.2
20260905014503 64 346 0.0 0.0 0.00 0.00 0.00 72 1009.0
20260905013036 64 346 0.0 0.0 0.00 0.00 0.00 72 1009.0
20260905011531 65 346 0.0 15.0 0.00 0.00 0.00 70 1008.9
20260905010027 65 346 0.0 0.0 0.00 0.00 0.00 70 1008.9
20260905004526 66 346 0.0 0.0 0.00 0.00 0.00 68 1008.9
20260905003023 66 346 0.0 5.0 0.00 0.00 0.00 67 1008.9
20260905001524 67 346 0.0 4.0 0.00 0.00 0.00 66 1009.0
20260905000101 68 346 2.0 6.0 0.00 0.00 0.00 65 1008.9
20260904234547 67 350 4.0 8.0 0.00 0.00 0.00 66 1009.2
20260904233048 67 292 3.0 7.0 0.00 0.00 0.00 66 1009.4
20260904231543 67 272 2.0 7.0 0.00 0.00 0.00 66 1009.4